GFSWCAN_prec_cloud_003.txt.gz
Cloud_Cover
25 99 100 37 24 5 5 5 5 5 5 5 5 5 5 58 97 90 100 100 100 100 100 100 100 86 100 76 56 100 100 100 100 100 100 100 99 83 33 81 100 100 100 100 100 90 94 100 100 100 100 100 100 100
11 77 100 25 79 5 5 5 5 7 5 4 5 5 5 5 61 100 100 100 100 100 100 78 99 100 100 98 100 100 100 98 100 100 100 100 86 98 5 98 100 100 100 96 99 49 76 56 75 100 100 100 100 100
5 80 100 31 24 5 5 5 5 5 5 5 5 5 5 5 27 47 98 100 100 100 100 100 100 100 100 100 100 100 100 100 100 100 100 100 100 88 64 44 96 100 88 100 100 88 71 68 73 73 98 100 100 100
75 96 96 6 19 5 5 5 5 5 5 5 5 5 5 65 100 100 73 100 100 100 100 80 78 100 100 100 100 100 100 100 100 100 100 100 100 22 8 44 6 41 86 100 98 100 100 81 99 84 82 56 91 85
37 92 98 6 97 6 5 5 5 5 5 5 5 5 54 7 5 100 100 100 100 100 99 48 88 100 100 100 100 100 100 100 100 100 100 100 99 78 72 79 73 73 74 82 96 81 69 61 100 100 100 46 100 100
5 93 35 94 100 21 33 51 64 40 5 5 5 100 61 83 65 100 100 100 100 100 100 92 94 100 100 100 100 100 100 100 100 100 100 100 90 80 100 100 92 73 5 27 100 45 60 12 78 91 99 97 100 100
34 100 95 95 100 100 100 17 100 93 6 5 5 5 5 37 70 97 100 100 100 100 100 100 100 100 100 100 100 100 100 100 100 100 100 100 100 100 100 100 100 99 100 100 100 96 23 40 56 97 100 98 97 100
6 94 84 25 100 100 100 100 100 82 5 5 5 5 8 59 90 100 100 100 100 100 100 100 100 100 100 100 100 100 100 100 100 100 100 100 100 100 100 98 100 100 100 97 98 96 99 100 80 100 100 100 100 100
6 52 99 6 100 66 100 5 73 10 5 2 5 72 100 100 100 99 100 100 100 100 100 100 100 100 100 100 100 100 100 100 100 100 100 100 100 100 100 88 64 62 100 100 100 100 100 99 98 100 100 100 100 100
5 84 32 54 68 53 15 11 5 5 5 3 5 79 100 94 100 100 100 100 100 100 100 100 98 82 80 100 100 100 100 100 100 100 100 100 100 100 100 100 100 53 100 100 100 100 100 100 100 100 100 100 100 100
14 59 19 24 79 61 43 5 5 5 6 51 62 98 100 64 100 100 100 100 100 100 99 100 98 90 62 100 100 100 100 100 100 93 96 100 94 100 100 100 100 100 100 100 100 100 100 100 100 100 100 100 100 98
28 98 12 7 32 7 41 5 5 10 25 97 98 100 100 92 100 100 100 100 100 92 100 100 100 43 92 100 100 100 100 100 100 70 99 100 77 100 100 100 100 100 100 100 100 100 100 100 100 100 100 100 98 96
100 99 17 7 30 43 85 5 5 5 40 11 89 100 100 100 100 100 100 100 100 100 100 100 96 90 100 100 100 100 100 99 54 89 92 97 100 91 100 100 100 100 100 100 100 100 100 100 100 100 100 100 100 100
100 97 33 56 100 26 90 4 5 17 98 100 100 96 91 100 100 100 100 100 100 100 100 100 100 100 84 100 100 100 70 91 100 100 96 64 100 100 95 96 100 99 98 100 100 100 100 100 100 100 100 100 100 100
99 26 18 91 69 57 42 5 12 100 100 99 96 62 70 94 93 96 100 100 100 100 100 100 100 100 66 100 100 100 100 100 100 66 100 100 100 100 100 100 100 100 100 100 100 100 100 100 100 100 100 89 100 100
99 100 100 100 100 75 17 10 75 100 100 100 99 72 99 46 63 87 100 100 100 100 100 100 100 100 100 87 100 100 100 100 100 84 40 97 100 100 100 100 100 100 100 100 100 100 100 100 100 100 100 100 100 100
100 100 98 16 75 93 99 76 95 94 100 100 97 100 97 99 97 68 100 100 100 100 100 100 100 98 76 90 100 100 100 100 96 11 33 87 80 96 99 97 100 100 100 100 100 100 100 100 100 100 100 100 100 100
100 100 100 100 100 100 92 50 100 92 100 97 99 86 99 93 34 7 5 69 91 100 100 100 100 96 16 91 100 100 100 100 100 97 100 100 100 100 100 100 100 100 100 100 100 100 100 100 100 100 100 100 100 99
100 100 97 27 100 100 64 23 87 90 89 100 100 100 100 97 12 5 5 25 100 100 100 100 100 95 20 64 100 100 100 100 100 100 100 100 100 100 100 100 100 100 100 100 100 100 100 100 100 100 100 98 96 100
100 100 100 85 100 100 33 56 100 100 81 78 93 100 100 100 81 42 48 63 100 100 100 100 60 100 99 62 71 100 100 100 100 100 100 100 100 100 100 100 100 100 100 100 100 100 100 100 100 100 100 100 100 99
100 100 100 98 100 96 45 83 100 99 100 100 94 94 88 100 99 95 37 86 100 100 100 100 100 100 100 100 100 97 100 99 99 100 100 100 100 100 100 100 100 99 100 100 100 100 100 100 100 100 100 100 100 86
100 100 90 99 90 96 88 90 98 89 85 59 98 98 100 100 100 89 98 100 80 87 94 100 98 100 100 100 100 100 100 100 100 97 100 100 100 100 100 100 100 100 100 100 100 100 100 100 100 100 100 100 100 100
100 100 100 99 62 97 100 63 32 88 94 90 91 87 76 95 63 61 100 94 88 71 69 70 98 99 100 100 100 100 100 100 100 100 100 100 100 100 100 100 100 100 100 100 100 100 100 100 100 100 100 100 100 100
100 90 100 98 96 100 66 11 14 87 99 94 100 93 5 61 69 97 96 77 23 5 72 31 6 43 64 100 100 100 100 100 100 100 100 100 100 100 100 100 100 100 100 100 100 100 100 100 100 100 100 100 100 100
100 95 35 100 100 100 53 7 50 48 5 98 100 82 68 95 99 100 100 26 59 99 100 100 55 5 85 39 100 100 100 100 100 100 100 100 100 100 100 100 100 100 100 100 100 100 100 100 100 100 100 100 100 100
99 59 98 100 100 96 6 7 58 7 63 100 85 72 81 99 98 80 31 56 91 92 98 66 39 86 65 23 98 100 100 100 100 100 100 100 100 100 100 100 100 100 100 100 100 100 100 100 100 100 100 100 100 100
100 100 100 100 98 26 11 41 12 22 100 88 72 79 83 97 99 6 44 71 51 49 55 44 54 100 100 73 43 100 100 100 100 100 100 100 100 100 100 100 100 100 100 100 100 100 100 100 100 100 100 100 100 100
100 100 100 100 100 55 5 63 66 60 5 16 50 75 55 45 6 5 12 6 57 54 53 23 50 80 99 98 95 98 100 100 100 100 100 100 100 100 100 100 100 100 100 100 100 100 100 100 100 100 100 100 100 100
100 100 100 100 100 100 38 7 5 6 5 20 5 5 6 5 6 5 5 8 16 96 98 50 10 18 80 78 72 100 100 100 100 100 100 100 100 100 100 100 100 100 100 100 100 100 100 100 100 100 100 100 100 100
100 100 100 97 29 35 5 23 50 57 38 13 15 14 24 8 17 29 50 58 74 81 68 85 90 100 88 81 70 86 100 100 100 100 100 100 100 100 100 100 100 100 100 100 100 100 100 100 100 100 100 100 100 100
100 97 79 70 50 28 72 87 81 85 66 76 79 76 37 34 16 41 85 76 94 97 98 79 74 82 87 94 94 98 100 100 100 100 100 100 100 100 100 100 100 100 100 100 100 100 100 100 100 100 100 100 100 100
100 98 60 100 92 96 94 95 98 88 93 96 40 100 71 75 83 5 10 95 62 57 69 79 97 98 99 100 100 100 100 100 100 100 100 100 100 100 100 100 100 100 100 100 100 100 100 100 100 100 100 100 100 100
100 99 98 93 95 99 90 44 92 82 89 100 86 98 91 64 38 5 7 81 87 93 77 92 100 100 100 100 100 100 100 100 100 100 100 100 100 100 100 100 100 100 100 100 100 100 100 100 100 100 100 100 100 100

GFSWCAN_prec_cloud_006.txt.gz
Cloud_Cover
91 30 99 100 20 94 5 5 5 5 5 5 5 5 5 4 5 67 46 100 100 100 100 100 100 100 100 92 73 100 100 100 100 100 100 100 100 100 100 100 71 12 100 100 71 99 100 100 100 100 98 100 100 100
100 99 30 100 25 97 8 5 5 5 5 5 5 5 5 5 5 8 59 92 100 100 100 99 100 100 100 98 93 100 100 100 100 100 100 100 100 100 100 100 94 95 97 100 98 98 87 92 100 96 93 85 100 100
100 100 26 55 24 92 12 7 6 5 5 5 5 5 5 5 5 14 34 86 100 100 100 100 77 65 100 100 100 68 100 100 100 100 100 100 100 100 100 100 31 30 75 100 92 98 100 95 85 61 76 91 100 100
96 100 100 42 18 72 100 57 47 63 23 5 5 5 5 58 28 21 12 68 97 100 100 100 83 100 98 98 99 80 92 100 100 100 100 100 100 100 96 85 18 75 97 55 95 52 18 92 43 73 59 82 94 88
88 100 100 100 99 99 100 100 100 99 61 74 23 70 5 96 17 30 54 66 95 100 100 100 100 100 100 93 85 100 100 100 100 100 100 100 96 80 65 24 30 98 100 59 57 16 10 22 7 20 21 26 95 100
100 100 100 100 100 22 100 100 100 100 100 17 11 18 15 98 9 96 100 100 100 100 100 100 100 100 100 100 100 100 100 100 100 100 100 100 77 98 90 47 99 87 42 6 6 42 53 85 52 66 16 99 100 100
99 100 100 100 98 6 98 39 100 100 87 5 5 5 41 61 12 62 92 100 100 100 100 99 94 100 100 100 100 100 100 100 100 100 100 100 99 100 100 86 38 92 85 100 100 100 100 100 100 100 97 100 100 100
100 100 100 100 87 5 98 99 100 97 5 5 5 5 17 100 38 90 100 100 100 100 100 100 96 88 100 100 100 100 100 100 100 100 100 100 100 100 100 91 60 93 100 97 99 100 100 100 92 59 96 100 100 100
100 100 100 86 95 5 5 76 100 8 5 5 4 97 70 83 21 100 100 100 100 100 100 99 78 100 100 100 100 100 100 100 100 100 100 100 100 100 99 60 30 9 28 55 88 100 100 93 80 82 99 100 100 100
100 100 100 100 90 100 6 92 58 5 5 5 2 16 100 63 91 100 100 100 100 100 100 100 79 100 100 100 100 100 100 100 100 100 100 100 100 100 100 100 100 58 84 100 100 87 100 100 100 100 100 100 100 100
99 100 76 100 51 6 5 98 5 5 0 25 48 83 61 44 97 100 100 100 100 100 100 93 7 100 100 100 100 100 100 100 100 100 100 100 100 100 100 100 100 100 66 100 100 100 100 99 100 91 99 100 100 97
100 100 80 100 70 60 100 5 5 5 8 30 96 100 84 100 100 100 100 100 100 100 100 100 43 87 100 100 100 100 100 100 100 100 100 100 100 98 100 100 100 100 100 97 100 100 100 100 100 100 100 99 88 83
100 100 99 100 89 6 5 5 60 5 95 7 69 82 74 86 99 100 100 100 100 100 100 100 100 100 100 100 100 100 100 100 100 100 100 100 100 100 100 100 100 100 100 100 100 100 100 100 100 100 100 100 100 100
100 100 100 96 99 6 6 97 99 16 28 50 45 6 37 29 71 100 100 100 100 100 100 100 100 100 100 99 100 100 100 100 100 100 100 100 100 100 100 100 100 100 100 100 100 100 100 100 100 100 100 100 100 100
99 92 100 100 95 16 99 100 100 96 98 92 41 57 90 99 97 96 100 100 100 100 100 100 100 100 100 84 76 100 100 100 100 100 100 100 100 100 100 100 100 100 100 100 100 100 100 100 100 99 100 100 100 99
97 99 100 99 99 100 100 98 98 100 100 90 99 62 78 45 14 5 100 100 100 100 100 100 100 98 98 86 100 100 100 100 100 83 16 15 70 100 100 100 100 100 100 100 100 100 100 100 100 100 100 100 100 100
92 98 100 100 100 86 100 100 100 100 100 100 94 93 98 99 96 34 5 96 100 100 100 100 100 100 96 74 98 100 100 100 100 85 98 86 83 98 100 100 100 100 100 100 100 100 100 100 100 100 100 100 100 100
100 100 100 100 100 85 100 100 100 99 100 90 96 91 100 74 73 15 19 5 59 97 100 100 100 99 88 100 49 99 100 98 73 70 100 100 100 100 100 100 100 100 100 100 100 100 100 100 100 100 100 100 100 100
100 100 100 100 100 100 97 97 100 47 69 100 99 100 100 97 38 19 16 15 82 100 100 100 100 79 59 96 98 84 100 100 100 100 100 100 100 100 100 100 100 100 100 100 100 100 100 100 100 100 100 100 100 100
100 100 100 100 100 100 100 100 91 87 72 67 93 100 100 93 62 84 96 82 18 100 100 100 97 100 100 100 100 100 100 100 100 76 100 100 100 100 100 100 100 100 100 100 100 100 100 100 100 100 100 100 100 100
100 100 100 100 100 98 100 100 100 88 100 87 96 85 87 100 100 91 100 87 51 96 51 92 95 100 100 100 100 100 100 99 91 100 73 42 100 100 100 100 100 100 100 100 100 100 100 100 99 100 100 100 100 100
100 100 100 100 100 68 100 100 100 100 90 100 91 97 100 86 93 99 99 100 99 68 19 7 76 100 98 96 86 72 81 99 100 95 100 55 26 53 100 100 100 100 100 100 100 100 100 100 100 100 100 100 100 100
100 100 100 100 100 100 100 98 100 91 85 100 95 99 81 99 68 86 96 100 48 5 5 5 5 5 5 5 5 8 54 86 98 100 100 100 99 99 100 100 100 100 100 100 100 100 100 100 100 100 100 100 100 100
100 100 100 100 100 100 100 100 99 100 100 98 100 74 30 26 76 98 96 78 5 5 5 5 5 3 3 2 5 5 11 60 85 100 99 100 100 100 100 100 100 100 100 100 100 100 100 100 100 100 100 100 100 100
100 100 100 100 100 100 100 67 97 100 86 87 100 46 6 96 93 100 95 26 5 5 5 5 5 5 5 5 5 5 5 54 99 90 100 100 100 100 100 100 100 100 100 100 100 100 100 100 100 100 100 100 100 100
100 97 100 100 100 100 100 100 100 100 100 100 80 28 95 90 100 82 5 5 5 5 5 2 4 5 5 5 5 5 5 5 94 100 100 100 100 100 100 100 100 100 100 100 100 100 100 100 100 100 100 100 100 100
91 99 100 100 100 100 100 100 100 100 100 100 31 94 78 98 87 5 3 5 5 5 5 5 5 5 8 6 17 5 5 22 97 96 98 100 100 100 100 100 100 100 100 100 100 100 100 100 100 100 100 100 100 100
100 100 100 100 100 100 100 100 100 100 98 31 31 65 16 46 3 4 5 5 5 5 5 5 5 26 67 49 39 81 98 82 89 86 100 100 100 100 100 100 100 100 100 100 100 100 100 100 100 100 100 100 100 100
100 100 99 100 100 100 100 100 100 76 5 5 5 5 5 5 5 5 5 5 8 20 53 5 5 5 9 12 68 85 100 100 100 99 99 100 100 100 100 100 100 100 100 100 100 100 100 100 100 100 100 100 100 100
100 92 100 100 100 100 100 100 99 24 18 4 4 5 5 5 5 6 5 5 7 5 10 68 93 100 99 100 90 34 53 58 90 99 100 100 100 100 100 100 100 100 100 100 100 100 100 100 100 100 100 100 100 100
100 100 100 100 100 100 91 79 59 49 65 76 83 56 21 8 5 5 5 22 34 90 100 86 64 50 98 90 95 99 70 72 78 100 100 100 100 100 100 100 100 100 100 100 100 100 100 100 100 100 100 100 100 100
100 100 100 100 92 92 92 95 96 89 99 85 40 95 36 25 38 5 8 91 31 9 58 94 100 76 43 84 89 78 98 85 100 100 100 100 100 100 100 100 100 100 100 100 100 100 100 100 100 100 100 100 100 100
100 100 100 100 100 100 94 36 82 57 68 99 86 90 83 29 15 5 7 82 69 90 93 100 82 84 87 86 86 83 93 99 100 100 100 100 100 100 100 100 100 100 100 100 100 100 100 100 100 100 100 100 100 100

GFSWCAN_prec_cloud_009.txt.gz
Cloud_Cover
100 100 100 99 77 96 87 26 5 15 100 100 5 5 5 5 5 4 100 90 55 100 49 18 28 37 11 69 99 100 100 100 100 100 100 100 100 100 100 100 100 100 100 100 100 100 86 81 23 75 98 98 100 100
100 100 100 73 100 98 8 98 7 7 8 86 5 5 5 2 5 5 90 91 99 99 100 100 29 28 14 97 91 100 100 100 100 100 100 100 100 100 100 100 100 100 100 91 100 100 53 10 58 28 95 35 100 100
100 100 100 66 82 77 94 100 100 37 56 75 36 5 9 5 10 34 96 84 89 99 100 96 80 37 71 17 97 98 99 100 100 100 100 100 100 92 100 100 100 100 100 92 73 31 5 7 19 59 33 86 75 90
100 100 100 100 100 81 94 100 100 94 83 9 83 100 94 5 9 71 100 81 92 100 100 100 97 64 69 100 25 81 98 100 100 100 100 100 100 100 100 99 100 100 100 100 98 8 15 6 5 51 7 54 100 89
100 100 100 100 100 100 97 100 100 80 6 5 93 85 6 5 14 24 31 7 74 98 100 100 100 93 100 100 62 44 83 74 100 100 100 100 100 100 87 97 100 100 93 94 99 52 9 5 5 5 39 24 9 28
100 100 100 98 94 100 100 100 100 9 45 20 26 5 38 5 100 98 90 68 97 100 100 100 100 100 100 100 93 63 88 85 100 100 100 100 97 100 100 100 72 100 20 48 72 5 12 22 5 34 96 45 52 100
100 100 100 100 100 100 97 22 34 19 12 8 5 62 98 99 100 100 57 100 100 100 100 100 100 100 100 100 100 100 100 100 100 100 100 100 99 100 100 40 41 98 100 95 20 28 98 64 82 89 100 97 54 100
99 100 100 100 100 100 100 70 48 13 100 5 8 48 86 93 94 90 78 100 100 100 100 100 100 100 100 100 100 100 100 100 100 100 100 100 100 100 99 92 81 5 5 34 80 82 87 89 100 100 100 100 100 100
100 100 100 100 100 100 100 95 31 92 100 5 5 14 90 72 71 100 100 100 100 100 100 100 100 100 100 100 100 100 100 100 100 100 100 100 100 94 98 100 24 15 80 99 91 99 100 100 100 100 100 93 94 40
100 100 100 100 100 100 100 12 61 29 100 3 7 46 99 89 8 95 100 100 100 100 100 100 100 100 100 100 100 100 100 100 100 100 94 100 100 100 100 100 100 99 6 23 56 60 70 98 100 100 100 85 95 100
100 100 100 100 90 99 100 100 10 64 38 68 94 86 88 57 98 100 100 100 100 100 100 100 99 100 100 100 100 100 100 100 100 100 100 100 100 100 100 100 100 100 97 85 100 100 100 100 100 100 100 100 100 100
100 100 100 100 100 84 82 100 29 33 20 62 91 100 99 100 100 100 100 100 100 100 100 98 95 100 100 100 100 100 100 100 100 99 100 100 100 100 100 100 100 100 100 100 100 100 100 100 100 100 100 100 100 100
100 100 100 100 98 67 46 100 44 5 64 26 78 77 99 57 82 44 63 100 100 100 100 98 96 99 100 100 100 100 100 100 100 100 100 100 100 100 100 100 100 100 100 100 100 100 100 100 100 100 100 100 100 100
100 100 100 100 100 100 12 100 44 12 49 96 80 17 75 66 97 100 100 100 100 100 100 100 100 100 100 100 100 100 100 100 100 100 100 100 100 100 100 100 100 100 100 100 100 100 100 100 100 100 100 100 100 100
100 100 100 100 100 100 63 26 100 82 90 98 79 58 100 99 94 85 89 100 100 100 100 100 100 89 98 100 100 100 100 100 100 100 98 100 100 100 100 100 100 100 100 100 100 100 100 100 100 100 100 100 100 100
100 100 100 100 100 100 99 100 100 79 100 88 92 100 100 98 69 28 31 100 100 97 100 100 100 100 100 96 100 100 100 100 100 100 96 65 90 100 98 100 100 100 100 100 100 100 100 100 100 100 100 100 100 100
100 100 100 100 100 100 100 100 100 100 100 100 100 93 99 100 79 17 5 5 43 90 100 100 100 100 100 100 100 92 93 99 100 100 96 77 69 83 100 100 100 100 100 100 100 100 100 100 100 100 100 100 100 100
100 100 100 100 100 100 100 100 100 100 100 100 100 100 99 97 68 6 6 33 20 88 100 100 100 100 98 100 100 72 62 90 80 97 97 55 57 66 86 88 67 88 100 100 100 100 100 100 100 100 100 100 100 100
100 100 100 100 100 100 100 100 100 100 100 100 100 94 75 47 14 21 17 18 56 82 100 100 100 100 88 98 96 80 72 90 79 59 37 72 32 96 75 92 78 68 76 75 98 100 99 100 100 99 100 100 100 100
100 100 100 100 100 100 100 100 100 100 100 100 100 98 78 18 17 43 59 88 81 79 73 100 100 100 96 100 99 89 84 100 100 100 45 31 32 13 70 80 90 97 85 84 100 82 65 71 75 100 100 100 100 100
100 100 100 100 100 100 100 100 100 100 100 100 100 90 80 79 83 87 98 100 66 8 5 10 85 60 6 76 92 87 85 69 100 100 100 100 94 79 29 26 66 93 100 100 55 70 100 89 88 98 94 88 100 100
100 100 100 100 100 100 100 100 100 97 83 98 87 94 95 68 100 100 82 100 100 27 10 5 5 12 5 5 5 4 5 20 95 100 100 100 100 82 56 82 63 99 100 100 100 92 67 90 100 100 100 100 100 100
100 100 100 100 100 100 100 100 100 100 94 100 100 87 71 95 99 95 97 81 60 14 5 5 5 5 5 5 5 5 5 5 11 88 85 97 100 97 97 100 95 99 100 100 100 100 80 73 100 100 100 100 100 100
100 100 100 100 100 100 100 100 100 100 100 100 100 98 70 100 100 100 100 33 16 9 5 5 0 0 3 5 5 1 0 5 5 5 64 96 96 84 100 100 100 100 92 100 100 100 100 100 100 100 100 100 100 100
100 100 100 100 100 100 100 100 93 100 100 100 100 76 100 93 100 100 98 5 5 5 5 5 4 1 0 0 0 0 0 5 5 38 36 70 76 73 68 100 83 100 99 92 97 100 100 100 100 100 100 100 100 100
100 99 100 100 100 100 100 100 100 100 100 100 100 96 100 100 100 94 41 5 3 5 5 5 1 0 0 0 0 0 4 5 12 9 5 16 70 100 97 98 100 100 100 100 91 99 100 100 100 100 100 100 100 100
100 98 100 100 100 100 100 100 100 100 99 91 98 100 100 100 100 61 5 1 0 5 5 0 0 1 0 3 4 5 5 5 9 10 12 50 60 86 94 100 100 100 100 100 100 100 100 100 100 100 100 100 100 100
100 100 100 100 100 100 100 100 100 100 99 50 100 100 100 100 33 5 1 5 5 5 5 5 5 5 5 5 5 5 12 7 18 83 99 99 90 90 90 90 97 100 100 100 100 100 100 100 100 100 100 100 100 100
100 100 100 100 100 97 100 100 100 100 99 100 100 100 100 70 2 2 1 5 5 5 5 5 5 27 79 56 63 73 85 100 100 100 100 93 60 51 71 98 100 100 100 100 100 100 100 100 100 100 100 100 100 100
100 100 100 100 99 100 74 86 100 100 100 100 100 98 33 5 5 5 5 5 5 5 8 45 76 100 95 98 87 42 5 46 99 100 100 100 70 56 78 99 100 100 100 100 100 100 100 100 100 100 100 100 100 100
100 100 99 94 89 70 64 100 100 100 100 96 77 32 22 5 5 5 5 5 8 48 80 50 59 48 94 99 100 100 76 5 6 80 99 99 98 77 70 100 100 100 100 100 100 100 100 100 100 100 100 100 100 100
100 100 100 100 100 91 100 100 100 100 88 49 22 89 6 22 5 5 6 46 54 20 35 60 88 70 68 100 98 98 99 98 91 92 92 98 94 81 100 100 100 100 100 100 100 100 100 100 100 100 100 100 100 100
100 100 100 100 100 100 100 96 97 98 55 26 33 59 52 17 5 5 5 42 37 48 57 67 71 93 93 89 97 94 96 81 64 97 100 100 100 100 100 100 100 100 100 100 100 100 100 100 100 100 100 100 100 100

GFSWCAN_prec_cloud_012.txt.gz
Cloud_Cover
100 100 100 100 100 100 100 100 100 100 100 98 100 94 13 5 0 3 3 99 100 100 50 53 33 47 100 49 68 76 60 100 100 100 92 100 99 100 100 100 98 98 100 100 100 100 90 73 86 50 5 6 26 97
100 100 100 100 100 100 97 100 100 100 100 100 100 100 99 8 4 4 7 4 84 100 55 76 37 5 24 61 100 89 100 100 100 100 100 100 100 100 100 100 100 100 100 100 82 83 100 100 98 45 5 5 36 79
100 100 100 100 100 100 100 100 100 100 100 90 20 90 90 90 68 5 5 16 17 100 96 98 86 17 7 34 100 89 100 100 100 100 100 98 100 100 100 100 100 100 100 90 43 100 95 66 5 6 51 5 28 69
100 100 100 100 100 100 100 100 100 100 60 26 100 88 92 66 42 5 5 8 41 100 100 97 72 66 48 86 80 66 100 100 100 100 100 100 100 100 100 100 100 100 100 100 73 39 8 5 17 9 8 5 5 18
100 100 100 100 100 76 100 100 97 88 99 6 26 65 9 9 31 8 2 4 31 99 100 100 92 100 100 98 100 100 89 100 100 100 100 100 100 100 98 100 100 100 94 100 98 56 16 5 5 5 62 10 5 9
100 100 100 100 100 100 93 100 100 28 90 21 100 44 65 99 96 5 9 7 12 100 100 100 100 100 100 98 100 100 100 99 100 100 100 100 84 93 100 100 78 94 100 96 100 100 63 5 5 5 80 82 9 5
100 100 100 100 100 100 97 100 94 100 20 100 17 28 76 98 100 76 22 100 100 100 100 100 100 100 100 100 100 100 100 100 100 100 100 100 56 100 100 100 100 100 100 100 100 100 42 18 31 23 93 93 52 70
100 100 100 100 100 100 99 100 60 8 89 28 5 5 52 10 66 52 13 100 100 100 100 100 100 100 100 100 100 100 94 99 100 100 100 100 100 100 100 100 100 100 83 6 11 53 82 98 100 95 100 91 80 74
100 100 100 100 100 96 100 98 56 100 17 5 4 48 23 7 88 100 78 100 100 100 100 100 100 100 100 100 100 100 100 100 100 100 100 100 100 96 91 100 100 100 100 11 5 6 74 89 100 100 100 100 85 83
100 100 100 100 100 100 100 96 100 100 100 4 17 28 89 99 7 69 100 100 100 100 100 100 100 100 100 100 100 100 100 100 100 100 100 100 100 98 100 100 100 91 66 8 15 82 98 100 100 100 100 100 98 100
100 100 100 100 100 100 99 93 92 100 100 92 100 98 84 90 94 100 100 100 100 100 100 100 100 100 100 100 100 100 100 100 100 100 100 100 100 100 100 100 100 86 98 100 98 71 58 86 100 81 100 100 100 100
100 100 100 100 100 100 100 100 100 100 100 78 84 52 71 100 100 100 100 100 100 100 99 100 100 100 100 100 100 100 100 100 100 100 100 100 100 100 100 100 100 100 100 100 88 100 100 100 100 100 100 100 100 100
100 100 100 100 100 100 100 100 100 100 30 88 95 78 99 100 100 100 100 100 100 100 100 100 100 100 100 100 100 100 100 100 100 100 100 100 100 100 100 100 100 100 100 100 100 100 100 100 100 100 100 100 100 100
100 100 100 100 100 100 100 100 100 100 86 100 100 78 100 100 100 100 100 100 100 100 100 100 100 100 100 100 100 100 100 100 100 100 100 100 100 100 100 100 100 100 100 100 100 100 100 100 100 100 100 100 100 100
100 100 100 100 100 100 100 100 100 100 100 100 100 97 100 98 100 100 100 100 100 100 100 100 100 93 98 100 100 100 100 100 100 100 100 100 100 100 100 100 100 100 100 100 100 100 100 100 100 100 100 100 100 100
100 100 100 100 100 100 100 100 100 100 100 98 100 100 100 100 98 12 34 100 100 100 100 100 100 100 100 99 100 100 100 100 100 100 100 100 100 100 100 100 100 100 100 100 100 100 100 100 100 100 100 100 100 100
100 100 100 100 100 100 100 100 100 100 100 100 100 100 100 92 94 5 5 35 70 100 100 100 100 100 100 100 100 100 100 100 100 74 71 100 100 100 100 100 100 100 100 100 100 100 100 100 100 100 100 100 100 100
100 100 100 100 100 100 100 100 100 100 100 100 100 100 100 100 85 5 5 5 28 83 100 100 100 100 99 100 100 100 100 80 64 86 96 74 100 100 100 100 100 100 100 100 100 100 100 100 100 100 100 100 100 100
100 100 100 100 100 100 100 100 100 100 100 100 100 100 100 100 70 5 5 5 24 6 67 95 100 97 95 100 95 94 100 100 100 91 10 16 30 73 80 76 92 100 100 100 100 100 100 99 100 100 98 100 100 100
100 100 100 100 100 100 100 100 100 92 100 100 100 100 100 100 75 34 5 13 35 43 97 80 52 61 100 98 88 91 98 32 23 96 51 5 5 12 86 82 48 58 70 90 100 100 95 75 84 100 100 99 97 100
100 100 100 100 100 100 100 100 100 100 100 100 100 100 100 100 88 86 98 100 100 50 38 5 5 5 91 24 88 25 5 5 5 5 22 75 69 100 100 100 79 77 66 65 95 100 100 100 100 100 100 100 100 100
100 100 100 100 100 100 100 100 100 100 100 100 100 100 100 100 92 77 70 100 100 20 82 59 5 5 5 1 5 5 29 19 5 5 5 5 9 34 97 100 100 81 36 57 85 100 100 98 100 100 100 100 100 100
100 100 100 100 100 100 100 100 100 100 100 100 100 100 100 100 88 98 100 86 6 44 100 100 58 5 5 5 5 5 5 6 18 9 5 5 5 7 89 100 100 100 93 10 17 86 100 100 100 100 100 100 100 100
100 100 100 100 95 100 100 100 100 100 100 100 100 100 100 100 100 100 100 97 6 76 98 100 100 27 5 5 5 5 5 5 5 5 5 5 5 5 5 9 16 24 39 50 91 60 67 100 100 100 100 100 100 100
100 100 98 93 100 100 100 100 100 100 100 100 100 100 100 100 100 100 100 99 54 100 91 42 58 5 5 5 5 5 5 5 5 5 5 5 5 5 5 5 7 30 15 79 75 100 98 54 98 100 100 100 100 100
100 89 70 99 100 100 100 100 100 100 100 100 100 100 100 96 100 100 100 98 98 100 100 100 98 6 5 4 3 4 5 5 5 5 3 5 5 32 90 100 99 66 58 59 93 100 100 98 96 48 100 100 100 100
91 82 91 100 100 100 100 100 100 100 100 99 100 100 100 95 100 92 99 44 88 100 100 88 15 5 5 5 5 5 5 5 5 5 5 5 5 5 11 54 61 21 7 68 97 100 100 94 100 99 100 100 100 100
10 44 100 100 100 100 100 100 100 100 99 100 100 100 100 100 100 79 55 48 98 100 83 6 5 5 6 8 5 5 8 6 6 24 45 73 70 40 31 61 90 79 91 95 93 100 100 100 100 100 100 100 100 100
100 100 100 100 100 100 87 100 95 100 100 100 100 99 97 81 12 35 100 100 78 49 6 10 5 60 68 59 51 5 46 85 100 100 100 90 12 6 5 10 86 92 100 97 96 100 100 100 100 100 100 100 100 100
99 100 100 100 100 100 100 100 100 100 100 94 72 34 59 76 100 100 100 77 56 36 20 43 59 78 74 77 65 29 6 20 88 100 100 100 31 8 78 89 75 79 94 98 100 100 100 100 100 100 100 100 100 100
100 100 100 100 100 100 100 100 100 100 91 62 48 58 90 100 100 99 48 54 61 68 72 61 65 61 96 97 96 100 85 5 6 74 100 100 97 82 21 60 81 88 100 100 100 100 100 100 100 100 100 100 100 100
100 100 100 100 100 100 100 99 61 60 58 84 89 74 73 66 57 32 66 67 76 78 54 66 92 35 6 67 78 91 99 99 100 85 76 70 66 45 72 85 82 100 100 100 100 100 100 100 100 100 100 100 100 100
100 100 100 100 99 84 84 19 62 100 100 99 100 98 41 44 11 5 42 65 46 57 60 58 51 62 80 100 100 96 98 99 99 99 100 100 100 89 88 93 100 100 100 100 100 100 100 100 100 100 100 100 100 100

GFSWCAN_prec_cloud_015.txt.gz
Cloud_Cover
100 100 92 100 100 100 100 100 100 100 100 100 98 100 85 100 24 5 4 89 64 100 62 100 100 99 47 98 24 25 79 100 100 99 100 96 69 90 74 82 99 100 100 100 100 100 100 29 57 100 100 40 80 8
100 100 100 100 100 100 100 100 100 100 100 100 100 86 100 100 52 77 5 4 5 58 38 52 100 100 54 58 82 44 48 41 99 95 99 100 100 63 60 100 100 95 76 98 60 88 76 30 100 100 75 58 60 5
100 100 100 100 100 100 100 100 100 100 100 100 89 100 100 100 100 76 24 4 8 23 8 12 6 71 74 100 62 98 36 80 98 87 92 100 100 99 88 97 100 99 100 99 72 77 88 66 62 100 69 12 57 10
100 100 100 100 100 100 100 100 93 100 100 100 100 85 50 50 57 54 100 5 28 31 100 58 41 58 24 92 100 92 99 85 99 100 100 77 100 96 98 100 100 95 97 100 75 100 100 100 70 80 65 66 20 69
100 100 100 100 100 100 100 100 99 100 100 90 100 100 95 29 84 88 13 4 1 39 100 100 100 67 97 31 100 100 87 100 100 100 100 100 85 100 100 100 100 98 69 100 100 100 100 100 99 75 95 94 79 94
100 100 100 100 100 100 100 100 100 100 100 91 100 100 5 11 99 90 85 70 22 65 100 100 100 100 100 100 94 100 100 100 100 100 100 100 89 94 100 99 79 100 100 100 100 100 100 100 99 52 66 100 89 88
100 100 100 100 100 100 100 100 100 99 100 100 100 61 43 40 56 94 9 100 94 38 100 100 100 100 100 80 100 100 100 99 100 100 100 100 100 100 100 97 76 100 100 100 100 100 96 83 93 86 100 100 100 96
100 100 100 100 100 100 100 100 100 100 92 100 100 7 5 21 27 71 67 99 100 100 100 100 100 100 100 100 100 100 100 100 100 100 100 100 88 100 67 86 100 100 100 83 100 42 46 100 86 14 76 73 100 89
100 100 100 100 100 100 100 100 100 97 87 51 10 60 83 84 95 72 62 74 100 100 100 100 100 100 100 100 100 100 100 100 100 100 100 99 100 100 87 100 94 99 100 98 94 98 65 36 7 14 83 74 100 100
100 100 100 100 100 100 100 100 100 99 23 84 51 93 69 54 10 32 89 100 100 100 100 100 100 100 100 100 100 100 100 100 100 100 100 100 100 100 100 99 84 77 79 37 38 80 9 9 7 61 99 100 100 100
100 100 100 100 100 100 100 100 100 100 100 95 100 100 58 56 93 98 100 100 100 100 100 100 100 100 100 100 100 100 100 100 100 100 98 100 100 100 100 100 100 100 90 82 71 23 5 60 45 96 72 100 99 100
100 100 100 100 100 100 100 100 100 100 100 100 100 100 100 100 100 100 100 100 100 100 100 100 100 100 100 100 100 100 100 100 100 100 100 100 100 100 100 100 100 100 100 99 87 89 100 98 62 67 71 100 100 100
100 100 100 100 100 100 63 100 100 100 100 100 100 92 100 96 100 97 100 100 100 100 100 100 100 100 100 100 100 100 100 100 100 100 100 100 100 100 100 100 100 100 100 98 100 100 99 100 100 100 100 100 100 100
100 100 100 100 100 100 78 100 100 100 100 100 95 99 100 100 100 100 100 97 100 100 100 100 100 100 100 100 100 100 100 100 100 100 100 100 100 100 100 100 100 100 100 100 100 100 100 100 90 100 100 100 100 100
100 100 100 100 100 100 100 95 100 100 100 100 100 100 100 84 100 100 100 96 100 100 100 100 100 96 100 99 100 100 100 100 100 100 100 100 100 100 100 100 100 100 100 100 100 100 100 100 100 100 100 100 100 100
100 100 100 100 100 100 100 94 94 100 100 100 100 100 100 100 100 96 100 100 100 100 100 100 100 100 100 97 100 100 100 100 100 100 100 100 100 100 100 100 100 100 100 100 100 100 100 100 100 100 100 100 100 100
100 100 99 100 100 100 98 74 87 100 100 100 100 100 100 100 100 82 13 99 100 100 100 100 100 60 98 100 100 100 100 100 100 100 96 100 100 100 100 100 100 100 100 100 100 100 100 100 100 100 100 100 100 100
100 100 100 100 100 100 100 99 99 98 100 100 100 100 100 100 100 100 15 5 52 100 99 100 100 98 83 100 100 100 100 100 100 86 49 21 32 93 100 100 100 100 100 100 100 100 100 100 100 100 100 100 100 100
100 100 100 100 100 100 100 100 100 100 100 100 100 100 100 100 100 100 89 37 9 20 70 98 100 100 62 83 90 96 100 99 67 24 61 65 92 51 37 100 100 100 100 100 100 100 100 100 100 100 100 100 100 100
100 100 100 100 100 100 100 100 100 98 100 100 100 100 100 100 100 100 100 84 16 13 15 71 70 13 8 43 92 98 87 57 81 88 47 28 19 46 78 53 95 100 100 100 100 100 100 100 100 100 100 100 100 100
100 100 100 100 100 100 89 100 100 100 100 100 100 91 100 100 100 100 100 100 100 94 83 6 35 99 74 15 5 9 68 71 95 6 5 59 5 5 5 5 28 100 100 97 100 100 100 100 100 100 100 100 100 100
100 100 100 100 99 99 85 100 92 94 100 100 96 96 100 100 100 100 100 100 100 13 18 13 17 53 100 100 94 38 34 7 5 13 20 26 15 35 5 5 14 99 100 100 93 79 95 100 100 100 100 100 100 100
100 100 100 100 100 94 93 100 100 100 98 100 100 94 98 100 100 100 100 100 100 21 84 71 41 5 64 92 99 87 90 12 5 5 2 5 5 5 5 5 5 5 5 35 51 18 22 22 49 71 94 100 100 100
100 100 100 100 84 91 100 100 100 100 100 100 100 100 100 100 100 100 100 100 100 100 89 72 8 29 8 7 5 5 5 5 5 5 5 5 5 5 5 5 5 5 5 5 22 62 63 84 71 76 49 6 48 100
100 100 100 89 76 72 100 100 100 100 100 100 100 100 100 100 94 89 100 100 100 100 100 100 100 100 74 5 5 5 5 5 5 5 12 5 5 5 5 5 5 5 25 95 100 100 88 92 99 97 100 84 50 85
100 98 84 6 48 16 65 100 100 100 100 100 99 100 100 100 93 91 100 100 100 100 100 100 55 45 32 6 5 5 5 9 5 22 1 5 5 7 54 45 85 22 5 38 61 99 93 90 74 99 100 100 100 99
100 87 68 85 100 97 100 100 100 100 100 100 100 100 100 95 100 100 100 100 100 100 100 34 5 6 71 85 58 12 5 22 5 5 5 5 19 7 45 50 12 5 5 5 5 60 96 96 79 80 100 100 100 100
49 5 59 100 100 100 100 100 100 100 100 100 100 100 83 100 100 100 100 100 98 85 76 67 73 91 95 100 100 61 23 59 43 42 25 5 5 5 5 5 5 5 85 96 92 27 94 98 92 84 100 100 100 100
12 35 100 100 100 100 100 100 100 100 100 100 100 100 100 100 80 99 79 52 60 60 88 78 99 100 98 69 64 71 67 90 100 100 100 75 5 5 5 5 19 13 53 100 98 100 96 99 98 99 99 100 100 100
74 100 100 100 100 100 100 100 100 100 100 100 100 100 100 100 100 65 48 42 84 19 5 5 24 77 67 81 54 29 5 20 52 95 100 97 49 13 31 41 23 73 100 98 94 100 100 100 100 100 100 100 100 100
100 100 100 100 100 100 100 100 100 100 100 100 100 100 100 100 96 94 100 91 54 85 86 77 75 89 95 96 95 96 87 5 6 21 95 98 66 78 86 74 25 59 80 99 100 100 100 100 100 100 100 100 100 100
100 100 100 100 100 100 100 100 100 100 100 100 100 100 100 100 100 100 46 62 100 100 57 77 87 37 6 36 58 94 95 100 100 100 100 91 88 68 30 19 16 71 98 100 100 100 98 100 100 100 100 100 100 100
100 100 99 97 97 93 100 100 100 100 100 100 100 100 100 87 65 54 31 42 10 5 12 31 12 52 60 84 99 79 88 94 98 98 96 98 100 90 94 94 86 100 100 100 100 100 100 100 100 100 100 100 100 100

GFSWCAN_prec_cloud_018.txt.gz
Cloud_Cover
93 75 98 100 100 100 100 100 100 100 100 100 100 100 100 100 97 78 60 5 4 84 80 29 66 51 83 25 54 81 28 94 100 100 96 100 100 100 99 100 100 92 100 100 100 92 97 60 87 42 5 60 62 100
100 79 100 100 100 100 100 100 100 100 100 100 100 100 100 92 93 100 32 31 5 10 5 4 65 97 82 78 71 68 62 29 83 99 91 98 100 100 100 100 100 93 80 96 80 74 89 68 74 6 12 80 68 100
100 100 100 100 100 100 100 100 100 100 100 100 100 100 100 100 68 37 78 85 31 49 18 8 5 94 100 37 96 100 89 52 36 76 99 100 100 100 98 85 100 97 87 97 90 91 100 80 89 52 46 44 65 68
100 100 100 100 100 100 100 100 100 100 100 100 100 100 100 100 44 100 99 28 89 28 81 4 88 100 100 100 98 100 96 77 80 53 83 100 100 89 82 86 93 80 61 81 54 47 84 53 98 97 100 100 99 100
100 100 100 100 100 100 100 100 100 100 100 100 100 96 97 100 85 50 82 94 100 81 94 56 13 56 100 100 100 100 100 100 94 53 96 100 100 100 92 100 100 62 56 92 73 92 98 85 84 98 100 100 100 100
100 100 100 100 100 100 100 100 100 100 100 100 100 54 69 27 56 100 36 97 98 70 99 90 70 95 100 100 100 100 100 100 100 100 100 100 100 100 95 79 96 59 88 100 100 88 100 75 100 100 100 100 100 100
100 100 100 100 100 100 100 100 100 100 100 100 100 70 66 5 84 100 5 88 99 68 78 92 100 100 100 100 100 98 100 100 81 100 100 100 98 100 100 96 100 100 100 100 82 67 5 50 89 100 100 100 100 100
100 100 100 100 100 100 100 100 100 100 100 100 100 100 100 72 5 43 5 56 91 98 100 100 100 100 100 100 100 100 100 100 100 100 100 100 100 100 88 42 85 100 100 100 94 100 85 57 82 100 100 100 100 88
100 100 100 100 100 100 100 100 100 100 100 100 100 100 81 90 57 29 17 40 96 100 100 100 100 100 100 100 100 100 100 100 95 78 100 100 100 100 50 100 84 45 58 94 97 75 97 19 56 74 82 69 58 61
100 100 100 100 100 100 100 100 100 100 100 100 100 100 93 76 17 18 99 100 100 100 100 100 100 100 100 100 100 100 100 100 100 100 100 100 100 99 96 100 77 37 64 69 87 16 69 43 27 14 5 5 87 100
100 100 100 100 100 100 100 100 100 100 100 100 100 100 100 76 84 100 100 100 100 100 100 100 100 100 100 100 100 100 100 100 100 80 97 100 100 100 100 100 90 75 100 98 17 34 42 28 33 5 5 49 89 99
100 100 100 100 100 100 100 100 100 98 84 81 99 98 100 100 100 100 100 100 100 100 100 100 100 100 100 100 100 100 100 100 100 100 98 100 100 78 100 100 100 99 99 100 71 91 91 81 39 14 20 58 100 100
100 100 100 100 100 100 100 100 100 100 100 100 100 100 100 100 100 100 100 99 100 100 100 100 100 100 100 100 100 100 100 98 96 99 100 100 100 100 100 100 100 100 100 97 100 100 94 78 88 93 100 99 100 100
100 100 100 100 100 100 100 96 100 100 93 98 100 100 100 100 97 100 100 100 100 100 100 100 100 100 100 100 100 100 100 100 100 100 100 100 100 100 100 100 100 100 100 100 100 100 100 100 100 100 100 100 100 100
100 100 100 100 100 100 100 100 99 100 95 100 100 100 100 100 100 100 100 74 100 100 100 100 100 100 100 94 100 100 100 100 100 100 100 100 100 100 100 100 100 100 100 100 100 100 100 100 100 100 100 100 100 100
100 100 100 100 100 100 100 100 100 95 100 100 98 100 100 100 100 100 100 91 100 100 100 100 100 100 100 97 100 100 100 100 98 100 100 100 100 100 100 100 100 100 100 100 100 100 100 100 100 100 100 100 100 100
100 100 100 100 100 100 100 100 96 100 87 77 100 100 100 100 100 100 100 95 98 100 100 100 100 100 100 100 100 100 100 97 100 94 100 100 100 100 100 100 100 100 100 100 100 100 100 100 100 100 100 100 100 100
100 100 100 100 99 99 100 98 98 97 100 100 100 100 100 100 100 100 100 100 96 96 87 100 100 100 95 100 100 95 95 100 100 99 86 70 54 12 34 98 100 100 100 100 100 100 100 100 100 100 100 100 100 100
100 100 100 100 100 100 100 68 95 96 100 100 100 100 100 100 100 100 100 100 100 84 85 96 100 96 91 68 90 97 94 100 100 100 92 36 81 81 52 13 88 100 100 100 100 100 100 100 100 100 100 100 100 100
100 100 100 100 93 94 98 74 76 100 100 100 100 100 100 100 100 100 100 100 100 99 91 80 51 54 70 14 33 12 13 65 65 30 11 6 5 8 17 18 7 26 98 100 100 100 100 100 100 100 100 100 100 100
100 100 100 100 96 95 96 66 76 100 100 100 100 100 100 100 100 100 74 100 100 100 94 47 61 74 19 6 43 89 30 5 11 64 68 12 5 8 5 5 5 5 5 20 100 100 100 100 100 100 100 100 100 100
100 100 100 100 98 98 72 90 60 100 100 100 100 100 100 100 100 100 80 79 100 100 100 100 100 76 71 45 45 31 61 97 100 70 45 16 5 14 18 5 23 66 49 13 20 55 67 99 100 100 100 100 100 100
100 100 100 100 100 80 75 87 100 100 100 100 100 100 100 100 100 89 93 97 100 100 100 100 100 80 57 24 9 23 28 25 41 35 11 38 38 9 18 31 45 94 10 5 5 5 5 16 61 86 97 100 100 100
100 100 100 100 98 94 64 64 100 100 100 100 100 100 100 90 97 97 96 100 100 100 100 100 100 100 96 13 8 5 5 5 7 5 5 9 23 21 6 5 5 19 15 5 5 21 90 100 99 62 59 44 72 76
100 100 100 100 83 79 70 96 100 100 100 100 95 98 80 85 75 92 100 100 100 100 100 100 100 100 100 100 90 5 22 92 20 5 5 5 5 7 6 5 5 5 14 48 29 32 99 100 100 92 85 80 93 100
100 100 93 28 88 7 5 91 100 100 100 100 100 99 99 100 100 100 100 100 100 98 100 98 88 86 100 100 100 70 100 47 6 5 12 5 5 5 12 5 5 5 5 30 57 65 5 67 100 94 90 96 97 97
100 85 66 84 27 5 43 100 100 95 100 100 100 96 100 100 100 100 100 100 100 100 96 100 100 100 100 100 100 100 45 20 5 5 26 8 5 5 7 5 5 5 5 5 5 9 5 5 75 100 100 100 96 88
38 63 29 32 5 19 28 100 100 100 100 100 100 100 100 100 100 100 90 100 100 100 100 100 100 100 76 49 65 37 23 62 60 97 98 54 5 5 5 5 5 25 73 86 58 37 75 84 58 99 99 88 90 92
70 25 50 6 5 5 29 100 100 100 100 100 100 100 100 100 100 83 90 100 100 100 100 81 34 69 51 52 58 77 79 98 95 84 5 5 19 5 5 5 27 60 76 99 86 99 98 100 100 94 74 92 86 95
30 5 5 5 11 42 90 94 99 100 100 100 100 100 100 100 96 100 100 100 100 96 73 68 46 30 12 47 35 23 20 27 21 19 57 8 5 5 5 5 5 5 55 89 78 50 72 100 100 100 100 97 98 96
6 6 5 27 61 100 100 99 100 96 100 100 100 100 100 100 100 100 100 100 100 100 76 86 75 91 96 93 100 100 45 11 30 5 7 63 82 72 68 33 21 52 70 77 88 92 98 100 100 98 84 93 98 100
42 5 5 98 100 100 100 99 84 86 100 100 100 100 100 100 100 99 100 100 97 82 47 79 58 16 6 5 20 30 76 93 92 92 100 100 100 76 94 95 87 96 90 99 100 100 100 100 98 100 100 100 100 100
100 100 100 100 100 95 86 100 100 100 100 100 100 100 100 100 100 98 31 37 5 5 5 18 5 41 5 52 69 81 85 50 79 83 93 91 98 99 100 99 99 95 87 97 100 100 100 100 100 100 100 100 100 100